Jackson Hawkins Field, MS

4:09 PM CDT on October 20, 2019 (GMT -0500)
Hawkins

Weather History for KHKS - September, 2019

Change the Weather History Date:

Friday, September 20, 2019

  Actual Average (KJAN) Record (KJAN)
Temperature  
Mean Temperature 80 °F -  
Max Temperature 89 °F 86 °F 104 °F (1925)
Min Temperature 71 °F 64 °F 44 °F (1938)
Cooling Degree Days 15    
Month to date cooling degree days 384  
Year to date cooling degree days 2400  
Growing Degree Days 30 (Base 50)    
Moisture  
Dew Point 65 °F    
Average Humidity 68    
Maximum Humidity 93    
Minimum Humidity 43    
Precipitation  
Precipitation 0.00 in - - ()
Month to date precipitation 0.10  
Year to date precipitation 41.01  
Sea Level Pressure  
Sea Level Pressure 30.10 in    
Wind  
Wind Speed 8 mph (SE)    
Max Wind Speed 16 mph    
Max Gust Speed 22 mph    
Visibility 10 miles    
Events      
Averages and records for this station are not official NWS values.
T = Trace of Precipitation, MM = Missing Value Source: NWS Daily Summary

Daily Weather History Graph

Daily Weather History Graph

Search for Another Location

Airport or City:

Astronomy

Sep. 20, 2019 Rise Set
Actual Time 6:47 AM CDT 7:00 PM CDT
Civil Twilight 6:23 AM CDT 7:24 PM CDT
Nautical Twilight 5:54 AM CDT 7:53 PM CDT
Astronomical Twilight 5:25 AM CDT 8:22 PM CDT
Moon 11:10 PM CDT 12:33 PM CDT
Length of Visible Light 13h 01m
Length of Day
12h 12m
Waning Gibbous, 65% of the Moon is Illuminated
Sep 20
Waning Gibbous
Sep 21
Last Quarter
Sep 28
New
Oct 5
First Quarter
Oct 13
Full

Hourly Weather History & Observations

Time (CDT) Temp. Heat Index Dew Point Humidity Pressure Visibility Wind Dir Wind Speed Gust Speed Precip Events Conditions
12:53 AM 75.0 °F - 70.0 °F 84% 30.04 in 10.0 mi SE 5.8 mph - N/A   Scattered Clouds
1:53 AM 73.9 °F - 71.1 °F 91% 30.05 in 10.0 mi SE 8.1 mph - N/A   Clear
2:53 AM 73.9 °F - 70.0 °F 87% 30.04 in 10.0 mi SSE 6.9 mph - N/A   Mostly Cloudy
3:53 AM 73.9 °F - 70.0 °F 87% 30.04 in 10.0 mi ESE 5.8 mph - N/A   Clear
4:53 AM 73.9 °F - 69.1 °F 85% 30.06 in 10.0 mi ESE 9.2 mph - N/A   Clear
5:53 AM 73.0 °F - 69.1 °F 87% 30.07 in 10.0 mi SE 9.2 mph - N/A   Clear
6:53 AM 73.0 °F - 69.1 °F 87% 30.10 in 10.0 mi ESE 9.2 mph - N/A   Clear
7:53 AM 75.0 °F - 66.0 °F 73% 30.12 in 10.0 mi SE 10.4 mph - N/A   Clear
8:53 AM 77.0 °F - 63.0 °F 62% 30.14 in 10.0 mi ESE 13.8 mph 20.7 mph N/A   Clear
9:53 AM 80.1 °F 81.2 °F 62.1 °F 54% 30.15 in 10.0 mi SE 10.4 mph 19.6 mph N/A   Clear
10:53 AM 82.0 °F 82.7 °F 61.0 °F 49% 30.16 in 10.0 mi SE 15.0 mph - N/A   Partly Cloudy
11:53 AM 84.9 °F 86.1 °F 64.0 °F 49% 30.15 in 10.0 mi SE 10.4 mph - N/A   Clear
1:53 PM 88.0 °F 89.6 °F 64.9 °F 46% 30.11 in 10.0 mi SE 8.1 mph 17.3 mph N/A   Clear
2:53 PM 88.0 °F 89.3 °F 64.0 °F 45% 30.10 in 10.0 mi SE 10.4 mph - N/A   Clear
3:53 PM 88.0 °F 89.3 °F 64.0 °F 45% 30.08 in 10.0 mi SE 6.9 mph - N/A   Clear
4:53 PM 88.0 °F 88.4 °F 62.1 °F 42% 30.08 in 10.0 mi SE 9.2 mph - N/A   Clear
5:53 PM 84.9 °F 85.4 °F 62.1 °F 46% 30.08 in 10.0 mi ESE 10.4 mph - N/A   Clear
6:53 PM 82.9 °F 83.7 °F 62.1 °F 49% 30.09 in 10.0 mi ESE 6.9 mph - N/A   Clear
7:53 PM 80.1 °F 81.5 °F 63.0 °F 56% 30.11 in 10.0 mi ESE 5.8 mph - N/A   Clear
8:53 PM 78.1 °F - 63.0 °F 60% 30.12 in 10.0 mi SE 5.8 mph - N/A   Clear
9:53 PM 77.0 °F - 63.0 °F 62% 30.13 in 10.0 mi ESE 6.9 mph - N/A   Clear
10:53 PM 75.0 °F - 62.1 °F 64% 30.14 in 10.0 mi Calm Calm - N/A   Clear
11:53 PM 73.9 °F - 62.1 °F 66% 30.14 in 10.0 mi Calm Calm - N/A   Clear